Flag for Germany Weather past 2 weeks in Bornheim (Rheinland), North Rhine-Westphalia, Germany

Now
60 °F

Passing clouds.


Feels Like: 59 °F
Forecast: 42 / 65 °F
Wind: 7 mph from East

Location: Bonn-Hangelar


UV Index: 3 (Moderate)

Visibility: 8 mi


Pressure: 29.71 "Hg

Humidity: 72%

Dew point: 51 °F

Location of Bornheim (Rheinland)Location

Historic Weather in Bornheim (Rheinland)

°F

Bornheim (Rheinland) temperature yesterday

Maximum temperature yesterday: 59 °F (at 7:00 PM)
Minimum temperature yesterday: 40 °F (at 5:00 AM)
Average temperature yesterday: 48 °F

Past Weeks' High & Low Weather Summary

 TemperatureHumidityPressure
High67 °F (Apr 7, 5:00 PM)99% (Apr 12, 9:00 AM)30.44 "Hg (Apr 12, 9:00 AM)
Low32 °F (Apr 16, 6:00 AM)29% (Apr 17, 4:00 PM)29.74 "Hg (Apr 20, 10:00 AM)
Average49 °F73%30.11 "Hg
* Reported Apr 5 10:00 AM — Apr 20 10:00 AM, Bornheim (Rheinland), Weather by CustomWeather, © 2014

Note: Actual official high and low records may vary slightly from our data, if they occured in-between our weather recording intervals... More about our weather records

Advertising

Historic Weather Conditions — Data for Previous 24 hours

 ConditionsComfort  
Time TempWeatherWind HumidityBarometerVisibility
10:00 AM
Apr 20
56 °FPassing clouds.6 mph79%29.74 "Hg6 mi
9:00 AM52 °FFog.5 mph89%29.75 "Hg4 mi
8:00 AM48 °FFog.3 mph96%29.78 "Hg2 mi
7:00 AM46 °FFog.3 mph97%29.78 "Hg2 mi
6:00 AM44 °FFog.3 mph96%29.80 "Hg2 mi
5:00 AM46 °FClear.3 mph94%29.80 "Hg5 mi
4:00 AM46 °FPassing clouds.3 mph93%29.82 "Hg6 mi
3:00 AM48 °FClear.5 mph91%29.83 "Hg6 mi
2:00 AM50 °FPassing clouds.5 mph85%29.85 "Hg7 mi
1:00 AM51 °FClear.6 mph82%29.86 "Hg7 mi
12:00 AM52 °FClear.9 mph77%29.86 "Hg9 mi
11:00 PM
Apr 19
53 °FPassing clouds.9 mph74%29.87 "Hg11 mi
10:00 PM53 °FPassing clouds.9 mph71%29.88 "Hg11 mi
9:00 PM55 °FPassing clouds.9 mph64%29.88 "Hg12 mi
8:00 PM58 °FScattered clouds.8 mph58%29.87 "Hg16 mi
7:00 PM59 °FPartly sunny.7 mph54%29.88 "Hg19 mi
6:00 PM58 °FPassing clouds.7 mph52%29.90 "Hg31 mi
5:00 PM58 °FPassing clouds.7 mph51%29.92 "Hg31 mi
4:00 PM58 °FPassing clouds.7 mph48%29.94 "Hg31 mi
3:00 PM56 °FPassing clouds.8 mph48%29.97 "Hg31 mi
2:00 PM54 °FPassing clouds.7 mph54%30.00 "Hg31 mi
1:00 PM52 °FScattered clouds.7 mph62%30.01 "Hg25 mi
12:00 PM47 °FPartly sunny.6 mph70%30.03 "Hg25 mi
11:00 AM46 °FScattered clouds.5 mph79%30.06 "Hg12 mi
Weather by CustomWeather, © 2014

See weather overview